TimeEDT,TemperatureF,Dew PointF,Humidity,Sea Level PressureIn,VisibilityMPH,Wind Direction,Wind SpeedMPH,Gust SpeedMPH,PrecipitationIn,Events,Conditions,WindDirDegrees,DateUTC
12:51 AM,57.9,48.9,72,29.99,10.0,SSE,6.9,-,N/A,,Overcast,150,2012-10-19 04:51:00
1:23 AM,57.2,50.0,77,29.98,10.0,SE,4.6,-,N/A,,Overcast,130,2012-10-19 05:23:00
1:51 AM,57.0,50.0,77,29.98,10.0,Calm,Calm,-,N/A,,Overcast,0,2012-10-19 05:51:00
2:51 AM,57.9,50.0,75,29.94,10.0,SSE,4.6,-,N/A,,Overcast,150,2012-10-19 06:51:00
3:51 AM,57.9,50.0,75,29.92,10.0,Calm,Calm,-,N/A,,Overcast,0,2012-10-19 07:51:00
4:44 AM,57.2,51.8,82,29.90,2.0,SSE,3.5,-,0.01,Rain,Light Rain,150,2012-10-19 08:44:00
4:51 AM,57.0,53.1,87,29.91,4.0,Variable,4.6,-,0.02,Rain,Light Rain,0,2012-10-19 08:51:00
5:51 AM,57.0,55.0,93,29.92,10.0,Calm,Calm,-,0.00,,Overcast,0,2012-10-19 09:51:00
6:30 AM,55.4,53.6,94,29.94,2.0,NW,6.9,-,0.03,Rain,Rain,310,2012-10-19 10:30:00
6:33 AM,55.4,53.6,94,29.94,1.5,NW,9.2,-,0.05,Rain,Rain,320,2012-10-19 10:33:00
6:51 AM,54.0,53.1,97,29.95,1.5,North,3.5,-,0.14,Rain,Rain,350,2012-10-19 10:51:00
7:36 AM,53.6,53.6,100,29.92,2.5,ENE,6.9,-,0.15,Fog-Rain,Light Rain,70,2012-10-19 11:36:00
7:51 AM,54.0,54.0,100,29.90,2.5,ENE,8.1,-,0.16,Fog-Rain,Light Rain,70,2012-10-19 11:51:00
8:20 AM,55.4,53.6,94,29.89,1.8,NE,8.1,-,0.02,Rain,Light Rain,50,2012-10-19 12:20:00
8:36 AM,55.4,53.6,94,29.91,2.0,ENE,5.8,-,0.03,Rain,Light Rain,60,2012-10-19 12:36:00
8:43 AM,55.4,53.6,94,29.91,2.5,Calm,Calm,-,0.04,Rain,Light Rain,0,2012-10-19 12:43:00
8:51 AM,55.0,54.0,96,29.91,2.0,NNE,5.8,-,0.09,Rain,Heavy Rain,20,2012-10-19 12:51:00
9:31 AM,55.4,55.4,100,29.86,1.8,NNE,3.5,-,0.23,Rain,Rain,30,2012-10-19 13:31:00
9:45 AM,55.4,55.4,100,29.85,2.5,NE,3.5,-,0.24,Fog-Rain,Light Rain,50,2012-10-19 13:45:00
9:51 AM,55.9,55.0,97,29.85,2.5,NE,4.6,-,0.24,Fog-Rain,Light Rain,50,2012-10-19 13:51:00
9:54 AM,57.2,55.4,94,29.84,4.0,NE,3.5,-,0.00,Fog-Rain,Light Rain,50,2012-10-19 13:54:00
10:51 AM,59.0,57.0,93,29.84,3.0,Calm,Calm,-,0.01,Rain,Light Rain,0,2012-10-19 14:51:00
10:54 AM,59.0,57.2,94,29.83,1.5,Calm,Calm,-,0.00,Rain,Heavy Rain,0,2012-10-19 14:54:00
11:03 AM,57.2,55.4,94,29.83,5.0,North,5.8,-,0.03,Rain,Light Rain,350,2012-10-19 15:03:00
11:16 AM,57.2,55.4,94,29.83,2.5,North,5.8,-,0.05,Rain,Rain,350,2012-10-19 15:16:00
11:27 AM,57.2,55.4,94,29.82,1.0,NNW,6.9,-,0.09,Rain,Heavy Rain,340,2012-10-19 15:27:00
11:33 AM,57.2,57.2,100,29.82,2.0,NNW,8.1,-,0.13,Rain,Rain,340,2012-10-19 15:33:00
11:40 AM,57.2,57.2,100,29.82,1.2,NNW,6.9,-,0.18,Rain,Heavy Rain,340,2012-10-19 15:40:00
11:51 AM,57.0,57.0,100,29.82,1.2,North,5.8,-,0.24,Rain,Rain,350,2012-10-19 15:51:00
12:08 PM,57.2,57.2,100,29.81,1.0,NNW,5.8,-,0.10,Rain,Heavy Rain,340,2012-10-19 16:08:00
12:51 PM,57.9,57.0,97,29.80,1.0,NW,6.9,-,0.28,Rain,Rain,310,2012-10-19 16:51:00
1:12 PM,57.2,57.2,100,29.79,2.0,Calm,Calm,-,0.25,Rain,Rain,0,2012-10-19 17:12:00
1:51 PM,60.1,59.0,96,29.77,2.0,Calm,Calm,-,0.46,Rain,Light Rain,0,2012-10-19 17:51:00
2:05 PM,60.8,60.8,100,29.77,2.0,Calm,Calm,-,0.00,Rain,Light Rain,0,2012-10-19 18:05:00
2:17 PM,62.6,60.8,94,29.76,7.0,ESE,6.9,-,0.01,Rain,Light Rain,110,2012-10-19 18:17:00
2:51 PM,63.0,61.0,93,29.75,7.0,ESE,5.8,-,0.02,Rain,Light Rain,110,2012-10-19 18:51:00
3:20 PM,62.6,60.8,94,29.73,2.5,Variable,5.8,-,0.04,Rain,Light Rain,0,2012-10-19 19:20:00
3:51 PM,63.0,61.0,93,29.72,2.5,East,4.6,-,0.23,Rain,Rain,100,2012-10-19 19:51:00
4:35 PM,62.6,62.6,100,29.70,1.5,SSE,4.6,-,0.04,Rain,Light Rain,160,2012-10-19 20:35:00
4:51 PM,63.0,62.1,97,29.71,1.0,SSW,9.2,-,0.10,Rain,Rain,200,2012-10-19 20:51:00
5:51 PM,63.0,62.1,97,29.70,1.5,SSW,6.9,-,0.26,Rain,Rain,210,2012-10-19 21:51:00
5:59 PM,62.6,62.6,100,29.70,2.0,SSW,5.8,-,0.01,Rain,Light Rain,210,2012-10-19 21:59:00
6:51 PM,63.0,62.1,97,29.69,5.0,Calm,Calm,-,0.03,Fog-Rain,Light Rain,0,2012-10-19 22:51:00
7:51 PM,62.1,62.1,100,29.69,2.0,NNE,3.5,-,0.00,Fog,Patches of Fog,30,2012-10-19 23:51:00
8:51 PM,62.1,61.0,96,29.69,2.5,Calm,Calm,-,N/A,Fog,Patches of Fog,0,2012-10-20 00:51:00
9:33 PM,60.8,60.8,100,29.68,4.0,Calm,Calm,-,0.00,Fog,Patches of Fog,0,2012-10-20 01:33:00
9:51 PM,61.0,60.1,97,29.68,4.0,Calm,Calm,-,0.00,Fog,Patches of Fog,0,2012-10-20 01:51:00
10:51 PM,61.0,60.1,97,29.68,6.0,Calm,Calm,-,N/A,Fog,Patches of Fog,0,2012-10-20 02:51:00
11:42 PM,60.8,60.8,100,29.66,3.0,Calm,Calm,-,N/A,Fog,Patches of Fog,0,2012-10-20 03:42:00
11:51 PM,61.0,60.1,97,29.65,6.0,Calm,Calm,-,0.00,Fog-Rain,Light Rain,0,2012-10-20 03:51:00